Location: Pedholt
(56.0260°N, 10.2097°E)
Time: 04:35:41
(UTC+00:00)

Vanguard 3 - Pass Details

Date: 10 August 2021
Orbit: 510 x 3260 km, 33.3° (Epoch: 19 September)

Event Time Altitude Azimuth Distance (km) Brightness Sun altitude
Rises 20:04:47 0° 262° (W) 5,934 12.2 -7.4°
Reaches altitude 10° 20:10:11 10° 246° (WSW) 5,366 11.6 -7.9°
Maximum altitude 20:19:52 19° 210° (SSW) 5,212 11.1 -8.9°
Drops below altitude 10° 20:30:55 10° 175° (S) 6,188 11.2 -10.0°
Enters shadow 20:35:30 - 165° (SSE) 6,793 11.3 -10.4°
